Weather History for Fairhope, AL

Change the Weather History Date:

Thursday, December 6, 2012

  Actual Average (KBFM) Record (KBFM)
Temperature  
Mean Temperature 66 °F -  
Max Temperature 78 °F 63 °F 78 °F (2014)
Min Temperature 55 °F 45 °F 30 °F (2005)
Cooling Degree Days 2    
Growing Degree Days 16 (Base 50)    
Moisture  
Dew Point 58 °F    
Average Humidity 75    
Maximum Humidity 100    
Minimum Humidity 51    
Precipitation  
Precipitation 0.00 in - - ()
Sea Level Pressure  
Sea Level Pressure 30.00 in    
Wind  
Wind Speed 5 mph (ESE)    
Max Wind Speed 12 mph    
Max Gust Speed 17 mph    
Visibility 7 miles    
Events Fog    
Averages and records for this station are not official NWS values.
T = Trace of Precipitation, MM = Missing Value Source: NWS Daily Summary

Daily Weather History Graph

Daily Weather History Graph

Search for Another Location

Airport:

Trip Planner

Search our weather history database for the weather conditions in past years. The results will help you decide how hot, cold, wet, or windy it might be!

Date:

Astronomy

Dec. 06, 2012 Rise Set
Actual Time 6:35 AM CST 4:50 PM CST
Civil Twilight 6:08 AM CST 5:16 PM CST
Nautical Twilight 5:38 AM CST 5:46 PM CST
Astronomical Twilight 5:09 AM CST 6:15 PM CST
Moon No Moon Rise 11:51 AM CST (12/6)
Length of Visible Light 11h 08m
Length of Day
10h 15m
Waning Gibbous, 49% of the Moon is Illuminated
Dec 6
Waning Gibbous
Dec 13
New
Dec 19
First Quarter
Dec 28
Full
Jan 4
Last Quarter

Hourly Weather History & Observations

Time (CST) Temp. Dew Point Humidity Pressure Visibility Wind Dir Wind Speed Gust Speed Precip Events Conditions
7:35 AM 59.0 °F 59.0 °F 100% 30.05 in 7.0 mi ENE 3.5 mph - N/A   Clear
7:55 AM 60.8 °F 59.0 °F 94% 30.05 in 7.0 mi NE 4.6 mph - N/A   Scattered Clouds
8:15 AM 62.6 °F 60.8 °F 94% 30.05 in 10.0 mi ENE 5.8 mph - N/A   Scattered Clouds
8:35 AM 64.4 °F 59.0 °F 83% 30.05 in 7.0 mi ENE 5.8 mph - N/A   Scattered Clouds
8:55 AM 68.0 °F 59.0 °F 73% 30.05 in 10.0 mi East 4.6 mph - N/A   Clear
9:15 AM 68.0 °F 59.0 °F 73% 30.05 in 7.0 mi ENE 5.8 mph - N/A   Clear
9:35 AM 69.8 °F 59.0 °F 68% 30.05 in 5.0 mi ENE 5.8 mph - N/A   Haze
9:55 AM 71.6 °F 57.2 °F 60% 30.06 in 7.0 mi East 5.8 mph - N/A   Scattered Clouds
10:15 AM 71.6 °F 57.2 °F 60% 30.06 in 10.0 mi East 5.8 mph - N/A   Scattered Clouds
10:35 AM 73.4 °F 59.0 °F 61% 30.04 in 7.0 mi East 6.9 mph - N/A   Scattered Clouds
10:55 AM 75.2 °F 59.0 °F 57% 30.03 in 7.0 mi East 6.9 mph - N/A   Clear
11:15 AM 75.2 °F 59.0 °F 57% 30.02 in 5.0 mi SE 6.9 mph 10.4 mph N/A   Haze
11:35 AM 77.0 °F 60.8 °F 57% 30.02 in 7.0 mi SE 9.2 mph - N/A   Scattered Clouds
11:55 AM 77.0 °F 59.0 °F 54% 30.01 in 7.0 mi SE 10.4 mph - N/A   Mostly Cloudy
12:15 PM 75.2 °F 59.0 °F 57% 30.00 in 7.0 mi SE 6.9 mph - N/A   Scattered Clouds
12:35 PM 77.0 °F 59.0 °F 54% 29.99 in 7.0 mi ESE 6.9 mph - N/A   Scattered Clouds
12:55 PM 78.8 °F 59.0 °F 51% 29.98 in 7.0 mi SSE 10.4 mph 17.3 mph N/A   Mostly Cloudy
1:15 PM 78.8 °F 59.0 °F 51% 29.98 in 10.0 mi SSE 11.5 mph - N/A   Mostly Cloudy
1:35 PM 75.2 °F 59.0 °F 57% 29.98 in 7.0 mi ESE 8.1 mph - N/A   Mostly Cloudy
1:55 PM 73.4 °F 60.8 °F 65% 29.97 in 10.0 mi SE 6.9 mph - N/A   Mostly Cloudy
2:15 PM 73.4 °F 59.0 °F 61% 29.98 in 10.0 mi ESE 6.9 mph - N/A   Overcast
2:35 PM 73.4 °F 59.0 °F 61% 29.98 in 7.0 mi ESE 9.2 mph - N/A   Overcast
2:55 PM 75.2 °F 59.0 °F 57% 29.97 in 5.0 mi ESE 9.2 mph - N/A   Haze
3:15 PM 75.2 °F 57.2 °F 53% 29.97 in 7.0 mi SE 9.2 mph - N/A   Scattered Clouds
3:35 PM 75.2 °F 59.0 °F 57% 29.97 in 7.0 mi ESE 6.9 mph - N/A   Clear
3:55 PM 73.4 °F 57.2 °F 57% 29.97 in 10.0 mi ESE 6.9 mph - N/A   Clear
4:15 PM 73.4 °F 59.0 °F 61% 29.97 in 10.0 mi SE 5.8 mph - N/A   Clear
4:35 PM 71.6 °F 59.0 °F 64% 29.98 in 10.0 mi SE 5.8 mph - N/A   Clear
4:55 PM 68.0 °F 59.0 °F 73% 29.98 in 10.0 mi SE 4.6 mph - N/A   Clear
5:15 PM 68.0 °F 60.8 °F 78% 29.97 in 7.0 mi ESE 4.6 mph - N/A   Clear
5:35 PM 68.0 °F 59.0 °F 73% 29.98 in 10.0 mi ESE 3.5 mph - N/A   Clear
5:55 PM 64.4 °F 59.0 °F 83% 29.98 in 10.0 mi ESE 3.5 mph - N/A   Clear
6:15 PM 64.4 °F 59.0 °F 83% 29.99 in 10.0 mi Calm Calm - N/A   Clear
6:35 PM 60.8 °F 59.0 °F 94% 29.99 in 10.0 mi Calm Calm - N/A   Clear
6:55 PM 59.0 °F 55.4 °F 88% 29.99 in 7.0 mi Calm Calm - N/A   Clear
7:15 PM 57.2 °F 55.4 °F 94% 29.99 in 7.0 mi Calm Calm - N/A   Clear
7:35 PM 57.2 °F 55.4 °F 94% 29.99 in 7.0 mi Calm Calm - N/A   Clear
7:55 PM 59.0 °F 55.4 °F 88% 29.99 in 7.0 mi Calm Calm - N/A   Clear
8:35 PM 55.4 °F 55.4 °F 100% 30.00 in 1.0 mi Calm Calm - N/A   Mist
8:55 PM 55.4 °F 55.4 °F 100% 29.99 in 1.5 mi Calm Calm - N/A   Mist
9:15 PM 55.4 °F 55.4 °F 100% 29.99 in 10.0 mi Calm Calm - N/A   Clear
9:35 PM 55.4 °F 55.4 °F 100% 29.99 in 4.0 mi Calm Calm - N/A   Clear
9:55 PM 55.4 °F 55.4 °F 100% 29.99 in 7.0 mi Calm Calm - N/A   Clear
10:15 PM 55.4 °F 55.4 °F 100% 29.99 in 7.0 mi Calm Calm - N/A   Clear
10:55 PM 57.2 °F 55.4 °F 94% 29.98 in 0.8 mi Calm Calm - N/A   Mostly Cloudy
11:15 PM 55.4 °F 55.4 °F 100% 29.98 in 3.0 mi Calm Calm - N/A   Scattered Clouds
11:55 PM 55.4 °F 55.4 °F 100% 29.97 in 0.2 mi Calm Calm - N/A Fog Fog